AZV7358 UUWW-LDDU

Flight info

Callsign AZV7358
Flight time N/A
Altitude 36000
Route UUWW SOTO3D SOTOG L736 GODBI L856 OKR DCT VEBAL L196 SPL L607 SIPAL DCT SIPAL SIPA1A LDDU
Aircraft B752/M-SDE3FGHIM3RWXY/LB1

Departure

Time 2026-05-05 17:52
Airport Vnukovo International Airport (UUWW)

Arrival

Time N/A
Airport Dubrovnik Ruđer Bošković Airport (LDDU)
Time Latitude Longitude Altitude Speed Heading
2026-05-05 17:03 55.60226 37.28435 697 ft 0 kts 316°
2026-05-05 17:28 55.60218 37.28448 696 ft 2 kts 316°
2026-05-05 17:28 55.60208 37.28467 696 ft 2 kts 316°
2026-05-05 17:28 55.60197 37.28485 696 ft 2 kts 316°
2026-05-05 17:28 55.60186 37.28503 696 ft 2 kts 316°
2026-05-05 17:29 55.60175 37.28522 696 ft 2 kts 329°
2026-05-05 17:29 55.60161 37.28531 696 ft 2 kts 355°
2026-05-05 17:29 55.60146 37.28528 696 ft 2 kts 20°
2026-05-05 17:29 55.60134 37.28516 696 ft 0 kts 41°
2026-05-05 17:30 55.60130 37.28510 696 ft 0 kts 48°
2026-05-05 17:45 55.60132 37.28514 696 ft 1 kts 48°
2026-05-05 17:45 55.60142 37.28533 696 ft 3 kts 47°
2026-05-05 17:45 55.60154 37.28555 696 ft 3 kts 44°
2026-05-05 17:46 55.60175 37.28591 696 ft 4 kts 44°
2026-05-05 17:46 55.60197 37.28630 696 ft 4 kts 46°
2026-05-05 17:46 55.60213 37.28674 696 ft 3 kts 76°
2026-05-05 17:46 55.60209 37.28717 696 ft 3 kts 117°
2026-05-05 17:47 55.60195 37.28742 696 ft 3 kts 140°
2026-05-05 17:47 55.60171 37.28779 696 ft 5 kts 137°
2026-05-05 17:47 55.60141 37.28825 696 ft 6 kts 140°
2026-05-05 17:47 55.60104 37.28864 696 ft 6 kts 156°
2026-05-05 17:48 55.60062 37.28887 696 ft 6 kts 167°
2026-05-05 17:48 55.60014 37.28906 696 ft 7 kts 167°
2026-05-05 17:48 55.59962 37.28927 696 ft 6 kts 166°
2026-05-05 17:48 55.59935 37.28939 696 ft 0 kts 166°
2026-05-05 17:49 55.59923 37.28945 696 ft 3 kts 165°
2026-05-05 17:49 55.59888 37.28961 696 ft 6 kts 166°
2026-05-05 17:50 55.59842 37.28982 696 ft 7 kts 165°
2026-05-05 17:50 55.59797 37.28988 696 ft 4 kts 219°
2026-05-05 17:50 55.59786 37.28956 696 ft 1 kts 248°
2026-05-05 17:50 55.59778 37.28921 696 ft 6 kts 250°
2026-05-05 17:51 55.59714 37.28625 696 ft 54 kts 248°
2026-05-05 17:51 55.59493 37.27651 696 ft 116 kts 249°
2026-05-05 17:51 55.59124 37.26007 697 ft 172 kts 247°
2026-05-05 17:51 55.58606 37.23847 988 ft 203 kts 242°
2026-05-05 17:52 55.57826 37.21769 1842 ft 207 kts 230°
2026-05-05 17:52 55.56895 37.19733 2181 ft 224 kts 230°
2026-05-05 17:52 55.55953 37.17546 2816 ft 228 kts 237°
2026-05-05 17:52 55.55265 37.14982 3468 ft 233 kts 250°
2026-05-05 17:53 55.54851 37.12272 4229 ft 233 kts 258°
2026-05-05 17:53 55.54612 37.09439 4928 ft 236 kts 262°
2026-05-05 17:53 55.54508 37.06528 5556 ft 243 kts 273°
2026-05-05 17:53 55.55066 37.03623 6070 ft 257 kts 305°
2026-05-05 17:54 55.56388 37.01658 6854 ft 258 kts 333°
2026-05-05 17:54 55.58180 37.00908 7026 ft 270 kts 359°
2026-05-05 17:54 55.60025 37.01262 6996 ft 265 kts 11°
2026-05-05 17:54 55.61680 37.02570 7014 ft 266 kts 39°
2026-05-05 17:55 55.62814 37.05170 7020 ft 267 kts 68°
2026-05-05 17:55 55.63290 37.08311 7006 ft 266 kts 82°
2026-05-05 17:55 55.63508 37.11561 6997 ft 269 kts 86°
2026-05-05 17:55 55.63547 37.14990 7008 ft 286 kts 99°
2026-05-05 17:56 55.62850 37.18265 7015 ft 283 kts 127°
2026-05-05 17:56 55.61413 37.20582 7092 ft 285 kts 155°
2026-05-05 17:56 55.59550 37.21637 7835 ft 283 kts 168°
2026-05-05 17:56 55.57668 37.22513 8581 ft 286 kts 166°
2026-05-05 17:57 55.55703 37.22935 9211 ft 288 kts 188°
2026-05-05 17:57 55.53733 37.22290 9897 ft 291 kts 194°
2026-05-05 17:57 55.51765 37.21534 10538 ft 296 kts 194°
2026-05-05 17:57 55.49725 37.20746 11192 ft 301 kts 194°
2026-05-05 17:58 55.47693 37.19949 11816 ft 305 kts 194°
2026-05-05 17:58 55.45604 37.19126 12459 ft 310 kts 195°
2026-05-05 17:58 55.43480 37.18286 12867 ft 318 kts 195°
2026-05-05 17:58 55.41325 37.17391 12853 ft 312 kts 199°
2026-05-05 17:59 55.39312 37.16157 12859 ft 308 kts 203°
2026-05-05 17:59 55.37316 37.14848 12859 ft 309 kts 202°
2026-05-05 17:59 55.35289 37.13537 12858 ft 308 kts 202°
2026-05-05 17:59 55.33292 37.12246 12858 ft 308 kts 202°
2026-05-05 18:00 55.31276 37.10893 12857 ft 307 kts 208°
2026-05-05 18:00 55.29477 37.08984 12866 ft 304 kts 217°
2026-05-05 18:00 55.27736 37.06873 12858 ft 303 kts 217°
2026-05-05 18:00 55.26001 37.04787 12858 ft 303 kts 217°
2026-05-05 18:01 55.24268 37.02696 12858 ft 302 kts 217°
2026-05-05 18:01 55.22552 37.00622 12863 ft 308 kts 217°
2026-05-05 18:01 55.20650 36.98600 12956 ft 332 kts 207°
2026-05-05 18:01 55.18533 36.97046 13772 ft 331 kts 205°
2026-05-05 18:02 55.16396 36.95556 14413 ft 336 kts 204°
2026-05-05 18:02 55.14203 36.94015 14856 ft 344 kts 205°
2026-05-05 18:02 55.11986 36.92426 14856 ft 341 kts 205°
2026-05-05 18:02 55.09836 36.90872 14852 ft 337 kts 205°
2026-05-05 18:03 55.07614 36.89256 14870 ft 352 kts 205°
2026-05-05 18:03 55.05309 36.87575 15092 ft 370 kts 205°
2026-05-05 18:03 55.02934 36.85851 15857 ft 371 kts 205°
2026-05-05 18:03 55.00571 36.84134 16444 ft 376 kts 205°
2026-05-05 18:04 54.98148 36.82375 17073 ft 380 kts 205°
2026-05-05 18:04 54.95682 36.80587 17680 ft 384 kts 205°
2026-05-05 18:04 54.93218 36.78801 18274 ft 388 kts 205°
2026-05-05 18:04 54.90740 36.77009 18852 ft 392 kts 205°
2026-05-05 18:05 54.88215 36.75193 19415 ft 396 kts 204°
2026-05-05 18:05 54.85638 36.73371 19969 ft 399 kts 204°
2026-05-05 18:05 54.83077 36.71544 20512 ft 403 kts 204°
2026-05-05 18:05 54.80510 36.69630 21032 ft 405 kts 209°
2026-05-05 18:06 54.78134 36.67065 21525 ft 406 kts 220°
2026-05-05 18:06 54.76718 36.64951 21849 ft 406 kts 227°
2026-05-05 18:06 54.74377 36.59866 22496 ft 407 kts 241°
2026-05-05 18:06 54.73128 36.55464 22961 ft 407 kts 252°
2026-05-05 18:07 54.72372 36.50743 23419 ft 408 kts 262°
2026-05-05 18:07 54.72130 36.45915 23858 ft 409 kts 272°
2026-05-05 18:07 54.72406 36.40995 24317 ft 410 kts 282°
2026-05-05 18:07 54.72888 36.36129 24756 ft 413 kts 279°
2026-05-05 18:08 54.73153 36.31179 25176 ft 417 kts 275°
2026-05-05 18:08 54.73296 36.26192 25612 ft 420 kts 274°
2026-05-05 18:08 54.73390 36.21131 26001 ft 423 kts 273°
2026-05-05 18:08 54.73453 36.16018 26443 ft 425 kts 272°
2026-05-05 18:09 54.73497 36.10923 26814 ft 428 kts 272°
2026-05-05 18:09 54.73530 36.05759 27204 ft 430 kts 272°
2026-05-05 18:09 54.73556 36.00562 27578 ft 433 kts 272°
2026-05-05 18:09 54.73576 35.95413 27920 ft 436 kts 272°
2026-05-05 18:10 54.73593 35.90094 28283 ft 438 kts 272°
2026-05-05 18:10 54.73607 35.84815 28652 ft 440 kts 272°
2026-05-05 18:10 54.73618 35.79580 28946 ft 443 kts 272°
2026-05-05 18:10 54.73626 35.74263 29297 ft 444 kts 272°
2026-05-05 18:11 54.73630 35.70062 29566 ft 446 kts 272°
2026-05-05 18:11 54.73611 35.64664 29845 ft 449 kts 271°
2026-05-05 18:11 54.73587 35.59268 30166 ft 451 kts 272°
2026-05-05 18:11 54.73571 35.53828 30481 ft 453 kts 272°
2026-05-05 18:12 54.73559 35.48341 30735 ft 455 kts 272°
2026-05-05 18:12 54.73547 35.42898 31055 ft 456 kts 272°
2026-05-05 18:12 54.73535 35.37381 31317 ft 459 kts 272°
2026-05-05 18:12 54.73524 35.31927 31618 ft 460 kts 271°
2026-05-05 18:13 54.73528 35.26382 32038 ft 458 kts 270°
2026-05-05 18:13 54.73195 35.20884 32361 ft 461 kts 261°
2026-05-05 18:13 54.72413 35.15572 32717 ft 462 kts 256°
2026-05-05 18:13 54.71498 35.10212 33061 ft 461 kts 256°
2026-05-05 18:14 54.70586 35.04941 33374 ft 461 kts 256°
2026-05-05 18:14 54.69649 34.99616 33739 ft 460 kts 255°
2026-05-05 18:14 54.68722 34.94393 34034 ft 459 kts 255°
2026-05-05 18:14 54.67782 34.89145 34346 ft 459 kts 255°
2026-05-05 18:15 54.66827 34.83852 34659 ft 458 kts 255°
2026-05-05 18:15 54.65866 34.78636 34966 ft 457 kts 255°
2026-05-05 18:15 54.64908 34.73455 35213 ft 456 kts 255°
2026-05-05 18:15 54.63950 34.68244 35442 ft 456 kts 255°
2026-05-05 18:16 54.63002 34.63094 35667 ft 456 kts 255°
2026-05-05 18:16 54.62033 34.57932 35792 ft 441 kts 255°
2026-05-05 18:16 54.61102 34.52976 35802 ft 439 kts 255°
2026-05-05 18:17 54.59222 34.42874 35806 ft 445 kts 255°
2026-05-05 18:17 54.57320 34.32648 35808 ft 452 kts 254°
2026-05-05 18:18 54.55389 34.22294 35807 ft 455 kts 254°
2026-05-05 18:18 54.53455 34.12007 35805 ft 454 kts 254°
2026-05-05 18:19 54.51468 34.01656 35847 ft 455 kts 253°
2026-05-05 18:19 54.49430 33.91399 35854 ft 455 kts 254°
2026-05-05 18:20 54.47435 33.81112 35858 ft 454 kts 254°
2026-05-05 18:20 54.45451 33.70826 35857 ft 455 kts 254°
2026-05-05 18:21 54.43464 33.60535 35855 ft 454 kts 254°
2026-05-05 18:21 54.41473 33.50272 35856 ft 455 kts 254°
2026-05-05 18:22 54.39468 33.39996 35856 ft 455 kts 254°
2026-05-05 18:22 54.37450 33.29706 35858 ft 455 kts 253°
2026-05-05 18:23 54.35435 33.19477 35863 ft 455 kts 253°
2026-05-05 18:23 54.33411 33.09267 35860 ft 455 kts 253°
2026-05-05 18:24 54.31374 32.99034 35860 ft 454 kts 253°
2026-05-05 18:24 54.29331 32.88833 35862 ft 453 kts 253°
2026-05-05 18:25 54.27278 32.78635 35856 ft 453 kts 253°
2026-05-05 18:25 54.25237 32.68544 35856 ft 453 kts 253°
2026-05-05 18:26 54.23172 32.58389 35859 ft 453 kts 253°
2026-05-05 18:26 54.21100 32.48254 35856 ft 453 kts 253°
2026-05-05 18:27 54.19028 32.38165 35860 ft 453 kts 253°
2026-05-05 18:27 54.16935 32.28031 35859 ft 453 kts 252°
2026-05-05 18:28 54.13783 32.12860 35862 ft 454 kts 252°
2026-05-05 18:28 54.11675 32.02779 35858 ft 453 kts 252°
2026-05-05 18:29 54.09558 31.92706 35860 ft 452 kts 252°
2026-05-05 18:29 54.07424 31.82595 35860 ft 453 kts 252°
2026-05-05 18:30 54.05289 31.72508 35857 ft 454 kts 252°
2026-05-05 18:30 54.03146 31.62438 35861 ft 453 kts 252°
2026-05-05 18:31 54.01004 31.52423 35862 ft 452 kts 252°
2026-05-05 18:31 53.98910 31.42340 35857 ft 452 kts 254°
2026-05-05 18:32 53.96840 31.32255 35861 ft 453 kts 252°
2026-05-05 18:32 53.94729 31.22260 35861 ft 453 kts 252°
2026-05-05 18:33 53.92564 31.12223 35859 ft 450 kts 251°
2026-05-05 18:33 53.90404 31.02329 35857 ft 445 kts 251°
2026-05-05 18:34 53.88250 30.92533 35855 ft 442 kts 250°
2026-05-05 18:34 53.86095 30.82803 35857 ft 444 kts 250°
2026-05-05 18:35 53.83901 30.73075 35859 ft 443 kts 250°
2026-05-05 18:35 53.81694 30.63372 35857 ft 442 kts 250°
2026-05-05 18:36 53.79480 30.53683 35856 ft 444 kts 250°
2026-05-05 18:36 53.77202 30.44019 35857 ft 444 kts 249°
2026-05-05 18:37 53.74950 30.34471 35855 ft 443 kts 249°
2026-05-05 18:37 53.72711 30.24812 35862 ft 444 kts 249°
2026-05-05 18:38 53.70480 30.15151 35859 ft 443 kts 249°
2026-05-05 18:38 53.68230 30.05434 35857 ft 443 kts 249°
2026-05-05 18:39 53.66049 29.96044 35858 ft 443 kts 249°
2026-05-05 18:39 53.63805 29.86421 35855 ft 443 kts 249°
2026-05-05 18:40 53.61551 29.76797 35850 ft 443 kts 249°
2026-05-05 18:40 53.59281 29.67112 35852 ft 444 kts 249°
2026-05-05 18:41 53.57018 29.57499 35838 ft 443 kts 250°
2026-05-05 18:41 53.54756 29.47928 35831 ft 443 kts 249°
2026-05-05 18:42 53.52465 29.38278 35829 ft 443 kts 249°
2026-05-05 18:42 53.50181 29.28699 35831 ft 442 kts 249°
2026-05-05 18:43 53.47884 29.19118 35831 ft 443 kts 249°
2026-05-05 18:43 53.45670 29.09924 35832 ft 442 kts 249°
2026-05-05 18:44 53.43373 29.00432 35829 ft 443 kts 248°
2026-05-05 18:44 53.41051 28.90874 35833 ft 437 kts 248°
2026-05-05 18:45 53.38773 28.81538 35830 ft 434 kts 248°
2026-05-05 18:45 53.36489 28.72221 35830 ft 433 kts 247°
2026-05-05 18:46 53.34206 28.62903 35828 ft 433 kts 248°
2026-05-05 18:46 53.32008 28.53490 35828 ft 434 kts 248°
2026-05-05 18:47 53.29810 28.44124 35827 ft 434 kts 248°
2026-05-05 18:47 53.27609 28.34789 35827 ft 434 kts 248°
2026-05-05 18:48 53.25396 28.25445 35831 ft 434 kts 248°
2026-05-05 18:48 53.23173 28.16098 35831 ft 433 kts 248°
2026-05-05 18:49 53.20954 28.06810 35885 ft 434 kts 248°
2026-05-05 18:49 53.18720 27.97492 35884 ft 433 kts 248°
2026-05-05 18:50 53.16483 27.88209 35883 ft 433 kts 248°
2026-05-05 18:50 53.14233 27.78908 35882 ft 433 kts 248°
2026-05-05 18:51 53.11985 27.69657 35882 ft 434 kts 248°
2026-05-05 18:51 53.09726 27.60359 35884 ft 435 kts 248°
2026-05-05 18:52 53.07450 27.51007 35881 ft 437 kts 248°
2026-05-05 18:52 53.05152 27.41605 35881 ft 439 kts 248°
2026-05-05 18:53 53.00523 27.22792 35885 ft 443 kts 248°
2026-05-05 18:54 52.98222 27.13496 35886 ft 445 kts 248°
2026-05-05 18:54 52.95851 27.03964 35884 ft 444 kts 248°
2026-05-05 18:55 52.93514 26.94600 35883 ft 437 kts 247°
2026-05-05 18:55 52.91208 26.85401 35883 ft 433 kts 247°
2026-05-05 18:56 52.88892 26.76208 35887 ft 434 kts 247°
2026-05-05 18:56 52.86560 26.66986 35885 ft 435 kts 247°
2026-05-05 18:57 52.84221 26.57777 35884 ft 434 kts 247°
2026-05-05 18:57 52.81891 26.48638 35885 ft 434 kts 247°
2026-05-05 18:58 52.79543 26.39468 35882 ft 434 kts 247°
2026-05-05 18:58 52.77284 26.30677 35880 ft 434 kts 246°